Location: Mentone
(34.5413°N, 85.5351°W)
Time: 02:30:49
(UTC-06:00)

Vanguard 2 Rocket - Visible Passes

Search period start: 29 November 2014 00:00
Search period end: 09 December 2014 00:00
Orbit: 553 x 3335 km, 32.9° (Epoch: 28 November)

Date Brightness Start Highest point End Pass type
(mag) Time Alt. Az. Time Alt. Az. Time Alt. Az.
29 Nov 9.4 16:34:48 10° W 16:55:15 85° S 17:08:56 10° E visible
29 Nov 8.7 18:54:58 10° W 19:12:16 68° SSW 19:16:21 46° SE visible
29 Nov 9.9 21:15:46 10° W 21:22:16 23° WSW 21:22:16 23° WSW visible
30 Nov 9.1 17:53:07 10° W 18:12:20 78° SSW 18:21:29 22° ESE visible
30 Nov 9.1 20:13:35 10° W 20:27:24 41° SW 20:27:25 41° SW visible
01 Dec 9.4 16:51:25 10° W 17:11:50 83° S 17:25:28 10° ESE visible
01 Dec 8.9 19:11:35 10° W 19:28:20 56° SSW 19:32:38 40° SSE visible
01 Dec 10.2 21:33:57 10° W 21:38:34 16° WSW 21:38:34 16° WSW visible
02 Dec 9.2 18:09:42 10° W 18:28:38 68° SSW 18:37:55 21° SE visible
02 Dec 9.5 20:30:46 10° W 20:42:53 29° SW 20:43:52 29° SW visible
03 Dec 9.4 17:08:01 10° W 17:28:18 77° SSW 17:41:53 10° ESE visible
03 Dec 9.3 19:28:21 10° W 19:44:04 43° SW 19:49:16 30° S visible
04 Dec 9.5 18:26:19 10° WNW 18:44:38 56° SSW 18:54:46 16° SE visible
04 Dec 10.0 20:48:54 10° W 20:58:07 19° SW 21:00:44 18° SW visible
05 Dec 9.6 17:24:35 10° W 17:44:32 68° SSW 17:58:05 10° SE visible
05 Dec 9.8 19:45:33 10° W 19:59:29 31° SW 20:06:21 19° S visible
06 Dec 9.8 16:23:12 10° W 16:43:50 77° SSW 16:59:20 10° ESE visible
06 Dec 9.9 18:43:06 10° W 19:00:18 44° SW 19:11:47 10° SSE visible
06 Dec 10.4 21:10:34 10° WSW 21:13:13 11° SW 21:15:39 10° SW visible
07 Dec 9.8 17:41:12 10° WNW 18:00:30 56° SSW 18:13:56 10° SE visible
07 Dec 10.3 20:03:41 10° W 20:14:40 21° SW 20:22:55 10° S visible
08 Dec 9.9 16:39:46 10° W 17:00:02 67° SSW 17:15:28 10° SE visible
08 Dec 10.3 19:00:19 10° W 19:15:41 32° SW 19:26:40 10° SSE visible
